Rome, GA

4:04 PM EST on November 15, 2019 (GMT -0500)
Russell

Weather History for KRMG - October, 2019

Change the Weather History Date:

Monday, October 14, 2019

  Actual Average Record
Temperature  
Mean Temperature 62 °F 62 °F  
Max Temperature 82 °F 74 °F 84 °F (2008)
Min Temperature 44 °F 49 °F 33 °F (2006)
Degree Days  
Heating Degree Days 2 4  
Month to date heating degree days 43  
Since 1 July heating degree days 57  
Cooling Degree Days 0 1  
Month to date cooling degree days 30  
Year to date cooling degree days 1620  
Growing Degree Days 12 (Base 50)    
Moisture  
Dew Point 44 °F    
Average Humidity 57    
Maximum Humidity 90    
Minimum Humidity 22    
Precipitation  
Precipitation 0.00 in 0.12 in 1.54 in (2014)
Month to date precipitation 1.80  
Year to date precipitation 40.63  
Snow  
Snow - - - ()
Month to date snowfall  
Since 1 July snowfall  
Since 1 September snowfall  
Snow Depth -    
Sea Level Pressure  
Sea Level Pressure 30.08 in    
Wind  
Wind Speed 1 mph ()    
Max Wind Speed 8 mph    
Max Gust Speed -    
Visibility 10.0 miles    
Events      
T = Trace of Precipitation, MM = Missing Value Source: Averaged Metar Reports

Daily Weather History Graph

Daily Weather History Graph

Search for Another Location

Airport or City:

Astronomy

Oct. 14, 2019 Rise Set
Actual Time 7:45 AM EDT 7:07 PM EDT
Civil Twilight 7:19 AM EDT 7:33 PM EDT
Nautical Twilight 6:50 AM EDT 8:02 PM EDT
Astronomical Twilight 6:21 AM EDT 8:31 PM EDT
Moon 7:57 PM EDT (10/14) 8:16 AM EDT (10/14)
Length of Visible Light 12h 13m
Length of Day
11h 22m
Waxing Gibbous, 99% of the Moon is Illuminated
Oct 14
Waxing Gibbous
Oct 21
Last Quarter
Oct 27
New
Nov 4
First Quarter
Nov 12
Full

Hourly Weather History & Observations

Time (EDT) Temp. Dew Point Humidity Pressure Visibility Wind Dir Wind Speed Gust Speed Precip Events Conditions
12:53 AM 52.0 °F 45.0 °F 77% 30.06 in 10.0 mi Calm Calm - N/A   Clear
1:53 AM 50.0 °F 45.0 °F 83% 30.06 in 10.0 mi Calm Calm - N/A   Clear
2:53 AM 48.9 °F 45.0 °F 86% 30.06 in 10.0 mi Calm Calm - N/A   Clear
3:53 AM 46.9 °F 43.0 °F 86% 30.06 in 10.0 mi North 3.5 mph - N/A   Clear
4:53 AM 46.0 °F 42.1 °F 86% 30.07 in 10.0 mi Calm Calm - N/A   Clear
5:53 AM 45.0 °F 42.1 °F 90% 30.09 in 10.0 mi Calm Calm - N/A   Clear
7:53 AM 44.1 °F 41.0 °F 89% 30.12 in 10.0 mi Calm Calm - N/A   Clear
8:53 AM 48.9 °F 45.0 °F 86% 30.13 in 10.0 mi Calm Calm - N/A   Clear
9:53 AM 55.9 °F 48.0 °F 75% 30.14 in 10.0 mi Calm Calm - N/A   Clear
10:53 AM 64.9 °F 46.0 °F 50% 30.14 in 10.0 mi Variable 3.5 mph - N/A   Clear
11:53 AM 70.0 °F 41.0 °F 35% 30.12 in 10.0 mi NNW 8.1 mph - N/A   Clear
12:53 PM 73.0 °F 39.9 °F 30% 30.11 in 10.0 mi Variable 3.5 mph - N/A   Clear
1:53 PM 77.0 °F 35.1 °F 22% 30.08 in 10.0 mi North 4.6 mph - N/A   Clear
2:53 PM 79.0 °F 37.0 °F 22% 30.06 in 10.0 mi North 6.9 mph - N/A   Clear
3:53 PM 81.0 °F 43.0 °F 26% 30.05 in 10.0 mi NNW 4.6 mph - N/A   Clear
4:53 PM 81.0 °F 45.0 °F 28% 30.04 in 10.0 mi Calm Calm - N/A   Clear
5:53 PM 79.0 °F 44.1 °F 29% 30.04 in 10.0 mi South 4.6 mph - N/A   Clear
6:53 PM 75.0 °F 46.9 °F 37% 30.05 in 10.0 mi Calm Calm - N/A   Overcast
7:53 PM 73.0 °F 48.0 °F 41% 30.06 in 10.0 mi Calm Calm - N/A   Overcast
8:53 PM 69.1 °F 50.0 °F 51% 30.08 in 10.0 mi Calm Calm - N/A   Clear
9:53 PM 66.0 °F 50.0 °F 56% 30.08 in 10.0 mi Calm Calm - N/A   Clear
10:53 PM 64.0 °F 50.0 °F 60% 30.09 in 10.0 mi Calm Calm - N/A   Mostly Cloudy
11:53 PM 62.1 °F 51.1 °F 67% 30.09 in 10.0 mi North 3.5 mph - N/A   Clear